Weather History for KRDU - April, 2012

Change the Weather History Date:

Thursday, April 26, 2012

  Actual Average Record
Temperature  
Mean Temperature 67 °F 63 °F  
Max Temperature 77 °F 75 °F 93 °F (1990)
Min Temperature 56 °F 51 °F 34 °F (1919)
Degree Days  
Heating Degree Days 0 4  
Month to date heating degree days 185 176  
Since 1 July heating degree days 2511 3172  
Cooling Degree Days 2 2  
Month to date cooling degree days 31 39  
Year to date cooling degree days 79 51  
Growing Degree Days 15 (Base 50)    
Moisture  
Dew Point 58 °F    
Average Humidity 74    
Maximum Humidity 93    
Minimum Humidity 54    
Precipitation  
Precipitation 0.38 in 0.09 in 3.37 in (1978)
Month to date precipitation 2.63 2.57  
Year to date precipitation 11.89 13.41  
Snow  
Snow 0.00 in 0.00 in 0.00 in (2002)
Month to date snowfall 0.0 0.1  
Since 1 July snowfall 0.9 6.1  
Snow Depth 0.00 in    
Sea Level Pressure  
Sea Level Pressure 29.82 in    
Wind  
Wind Speed 10 mph (SW)    
Max Wind Speed 22 mph    
Max Gust Speed 33 mph    
Visibility 9 miles    
Events Rain , Thunderstorm    
T = Trace of Precipitation, MM = Missing Value Source: NWS Daily Summary

Daily Weather History Graph

Daily Weather History Graph

Search for Another Location

Airport or City:

Trip Planner

Search our weather history database for the weather conditions in past years. The results will help you decide how hot, cold, wet, or windy it might be!

Date:

Astronomy

Apr. 26, 2012 Rise Set
Actual Time 6:27 AM EDT 7:58 PM EDT
Civil Twilight 6:00 AM EDT 8:25 PM EDT
Nautical Twilight 5:28 AM EDT 8:58 PM EDT
Astronomical Twilight 4:54 AM EDT 9:32 PM EDT
Moon 10:09 AM EDT (4/26) No Moon Set
Length of Visible Light 14h 24m
Length of Day
13h 30m
Waxing Crescent, 24% of the Moon is Illuminated
Apr 26
Waxing Crescent
Apr 29
First Quarter
May 5
Full
May 12
Last Quarter
May 20
New

Hourly Weather History & Observations

Time (EDT) Temp. Dew Point Humidity Pressure Visibility Wind Dir Wind Speed Gust Speed Precip Events Conditions
12:51 AM 60.1 °F 52.0 °F 75% 29.91 in 10.0 mi South 4.6 mph - 0.00 in Rain Light Rain
1:51 AM 57.9 °F 54.0 °F 87% 29.88 in 8.0 mi East 3.5 mph - 0.02 in Rain Light Rain
2:51 AM 57.0 °F 55.0 °F 93% 29.84 in 10.0 mi ENE 4.6 mph - 0.00 in   Overcast
3:35 AM 57.2 °F 55.4 °F 94% 29.85 in 10.0 mi NNE 5.8 mph - 0.00 in Thunderstorm Thunderstorm
3:51 AM 57.0 °F 55.0 °F 93% 29.84 in 10.0 mi NE 4.6 mph - 0.00 in Rain , Thunderstorm Light Thunderstorms and Rain
4:04 AM 55.4 °F 55.4 °F 100% 29.88 in 2.0 mi North 5.8 mph - 0.07 in Rain , Thunderstorm Heavy Thunderstorms and Rain
4:20 AM 55.4 °F 55.4 °F 100% 29.85 in 7.0 mi East 9.2 mph - 0.12 in Rain , Thunderstorm Light Thunderstorms and Rain
4:51 AM 57.2 °F 55.4 °F 94% 29.84 in 10.0 mi ESE 6.9 mph - N/A   Scattered Clouds
5:51 AM 55.9 °F 54.0 °F 93% 29.81 in 6.0 mi SE 5.8 mph - N/A   Scattered Clouds
6:51 AM 55.9 °F 54.0 °F 93% 29.82 in 8.0 mi SSE 5.8 mph - N/A   Scattered Clouds
7:51 AM 59.0 °F 55.9 °F 90% 29.81 in 10.0 mi South 4.6 mph - N/A   Mostly Cloudy
8:51 AM 63.0 °F 57.0 °F 81% 29.80 in 10.0 mi SW 8.1 mph - N/A   Mostly Cloudy
9:51 AM 66.0 °F 57.9 °F 75% 29.79 in 10.0 mi WSW 11.5 mph - N/A   Mostly Cloudy
10:51 AM 69.8 °F 60.8 °F 73% 29.79 in 10.0 mi WSW 10.4 mph 17.3 mph N/A   Mostly Cloudy
11:51 AM 69.1 °F 59.0 °F 70% 29.84 in 7.0 mi West 12.7 mph 19.6 mph 0.00 in Rain Light Rain
11:57 AM 68.0 °F 60.8 °F 78% 29.86 in 1.5 mi West 9.2 mph 21.9 mph 0.02 in Rain , Thunderstorm Heavy Thunderstorms and Rain
12:16 PM 64.4 °F 60.8 °F 88% 29.80 in 2.0 mi SW 3.5 mph - 0.23 in Rain , Thunderstorm Light Thunderstorms and Rain
12:26 PM 64.4 °F 60.8 °F 88% 29.80 in 5.0 mi WSW 5.8 mph - 0.24 in Rain , Thunderstorm Light Thunderstorms and Rain
12:51 PM 64.9 °F 63.0 °F 93% 29.78 in 9.0 mi SSW 6.9 mph - 0.25 in   Overcast
1:51 PM 66.9 °F 63.0 °F 87% 29.78 in 10.0 mi WSW 13.8 mph 26.5 mph N/A   Overcast
2:51 PM 72.0 °F 61.0 °F 68% 29.78 in 10.0 mi WNW 16.1 mph 25.3 mph 0.00 in   Mostly Cloudy
3:51 PM 75.0 °F 59.0 °F 57% 29.78 in 10.0 mi West 15.0 mph 20.7 mph N/A   Mostly Cloudy
4:51 PM 75.9 °F 57.0 °F 52% 29.77 in 10.0 mi West 10.4 mph 18.4 mph N/A   Mostly Cloudy
5:51 PM 75.9 °F 59.0 °F 56% 29.76 in 10.0 mi SW 11.5 mph - N/A   Mostly Cloudy
6:51 PM 73.9 °F 60.1 °F 62% 29.78 in 10.0 mi WSW 19.6 mph 26.5 mph N/A   Mostly Cloudy
7:51 PM 71.1 °F 60.1 °F 68% 29.79 in 10.0 mi WSW 11.5 mph - N/A   Mostly Cloudy
8:51 PM 69.1 °F 61.0 °F 75% 29.80 in 10.0 mi SW 8.1 mph - N/A   Mostly Cloudy
9:51 PM 68.0 °F 61.0 °F 78% 29.80 in 10.0 mi SW 11.5 mph - N/A   Scattered Clouds
10:51 PM 66.9 °F 62.1 °F 84% 29.80 in 10.0 mi SW 11.5 mph - N/A   Mostly Cloudy
11:51 PM 66.9 °F 62.1 °F 84% 29.82 in 10.0 mi SW 8.1 mph - N/A   Mostly Cloudy